| time (UTC) | temp F | wind direction | speed MPH | gust MPH | rain 1hr in | rain 24hr in | rain mn in | humidity % | barometer mb |
| 20260510203249 | 54 | 56 | 0.0 | 0.0 | 0.00 | 0.00 | 0.00 | 74 | 998.1 |
| 20260510202746 | 54 | 225 | 0.0 | 0.0 | 0.00 | 0.00 | 0.00 | 74 | 998.2 |
| 20260510202245 | 54 | 135 | 0.0 | 0.0 | 0.00 | 0.00 | 0.00 | 75 | 998.1 |
| 20260510201742 | 54 | 135 | 0.0 | 0.0 | 0.00 | 0.00 | 0.00 | 75 | 998.0 |
| 20260510201240 | 54 | 225 | 0.0 | 0.0 | 0.00 | 0.00 | 0.00 | 75 | 998.0 |
| 20260510200809 | 54 | 135 | 0.0 | 0.0 | 0.00 | 0.00 | 0.00 | 75 | 997.9 |
| 20260510200738 | 54 | 135 | 0.0 | 0.0 | 0.00 | 0.00 | 0.00 | 75 | 997.9 |
| 20260510200236 | 54 | 56 | 0.0 | 0.0 | 0.00 | 0.00 | 0.00 | 75 | 997.9 |
| 20260510195820 | 54 | 225 | 0.0 | 0.0 | 0.00 | 0.00 | 0.00 | 75 | 997.8 |
| 20260510195733 | 54 | 225 | 0.0 | 0.0 | 0.00 | 0.00 | 0.00 | 75 | 997.8 |
| 20260510195232 | 54 | 202 | 0.0 | 0.0 | 0.00 | 0.00 | 0.00 | 75 | 997.9 |
| 20260510194729 | 54 | 180 | 0.0 | 0.0 | 0.00 | 0.00 | 0.00 | 74 | 997.7 |
| 20260510194306 | 54 | 337 | 0.0 | 0.0 | 0.00 | 0.00 | 0.00 | 74 | 997.7 |
| 20260510194227 | 54 | 337 | 0.0 | 0.0 | 0.00 | 0.00 | 0.00 | 74 | 997.7 |
| 20260510193724 | 54 | 0 | 0.0 | 0.0 | 0.00 | 0.00 | 0.00 | 74 | 997.6 |
| 20260510193322 | 54 | 270 | 0.0 | 0.0 | 0.00 | 0.00 | 0.00 | 74 | 997.7 |
| 20260510193223 | 54 | 270 | 0.0 | 0.0 | 0.00 | 0.00 | 0.00 | 74 | 997.7 |
| 20260510192720 | 54 | 135 | 0.0 | 0.0 | 0.00 | 0.00 | 0.00 | 74 | 997.7 |
| 20260510192313 | 54 | 67 | 0.0 | 0.0 | 0.00 | 0.00 | 0.00 | 73 | 997.6 |
| 20260510192218 | 54 | 67 | 0.0 | 0.0 | 0.00 | 0.00 | 0.00 | 73 | 997.6 |
| 20260510191716 | 54 | 292 | 0.0 | 0.0 | 0.00 | 0.00 | 0.00 | 74 | 997.6 |
| 20260510191301 | 54 | 180 | 0.0 | 0.0 | 0.00 | 0.00 | 0.00 | 74 | 997.7 |
| 20260510191214 | 54 | 180 | 0.0 | 0.0 | 0.00 | 0.00 | 0.00 | 74 | 997.7 |
| 20260510190711 | 54 | 45 | 0.0 | 0.0 | 0.00 | 0.00 | 0.00 | 75 | 997.6 |
| 20260510190210 | 54 | 135 | 0.0 | 0.0 | 0.00 | 0.00 | 0.00 | 75 | 997.6 |
| 20260510185707 | 54 | 247 | 0.0 | 0.0 | 0.00 | 0.00 | 0.00 | 75 | 997.5 |
| 20260510185254 | 55 | 202 | 0.0 | 0.0 | 0.00 | 0.00 | 0.00 | 75 | 997.5 |
| 20260510185205 | 55 | 202 | 0.0 | 0.0 | 0.00 | 0.00 | 0.00 | 75 | 997.5 |
| 20260510184703 | 55 | 225 | 0.0 | 0.0 | 0.00 | 0.00 | 0.00 | 75 | 997.5 |
| 20260510184201 | 55 | 180 | 0.0 | 0.0 | 0.00 | 0.00 | 0.00 | 75 | 997.4 |
| 20260510183157 | 55 | 180 | 0.0 | 0.0 | 0.00 | 0.00 | 0.00 | 75 | 997.5 |
| 20260510182654 | 55 | 225 | 0.0 | 0.0 | 0.00 | 0.00 | 0.00 | 75 | 997.5 |
| 20260510182152 | 55 | 258 | 0.0 | 0.0 | 0.00 | 0.00 | 0.00 | 76 | 997.5 |
| 20260510181731 | 55 | 146 | 0.0 | 0.0 | 0.00 | 0.00 | 0.00 | 76 | 997.5 |
| 20260510181650 | 55 | 146 | 0.0 | 0.0 | 0.00 | 0.00 | 0.00 | 76 | 997.5 |
| 20260510181148 | 55 | 90 | 0.0 | 0.0 | 0.00 | 0.00 | 0.00 | 75 | 997.7 |
| 20260510180645 | 55 | 225 | 0.0 | 0.0 | 0.00 | 0.00 | 0.00 | 75 | 997.5 |
| 20260510180225 | 55 | 225 | 0.0 | 0.0 | 0.00 | 0.00 | 0.00 | 75 | 997.4 |
| 20260510180144 | 55 | 225 | 0.0 | 0.0 | 0.00 | 0.00 | 0.00 | 75 | 997.4 |
| 20260510175641 | 55 | 247 | 0.0 | 0.0 | 0.00 | 0.00 | 0.00 | 76 | 997.4 |
| 20260510175223 | 55 | 90 | 0.0 | 0.0 | 0.00 | 0.00 | 0.00 | 76 | 997.2 |
| 20260510175139 | 55 | 90 | 0.0 | 0.0 | 0.00 | 0.00 | 0.00 | 76 | 997.2 |
| 20260510174637 | 55 | 202 | 0.0 | 0.0 | 0.00 | 0.00 | 0.00 | 76 | 997.3 |
| 20260510174223 | 55 | 0 | 0.0 | 0.0 | 0.00 | 0.00 | 0.00 | 75 | 997.4 |
| 20260510174135 | 55 | 0 | 0.0 | 0.0 | 0.00 | 0.00 | 0.00 | 75 | 997.4 |
| 20260510173632 | 55 | 135 | 0.0 | 0.0 | 0.00 | 0.00 | 0.00 | 75 | 997.4 |
| 20260510173214 | 55 | 45 | 0.0 | 0.0 | 0.00 | 0.00 | 0.00 | 75 | 997.4 |
| 20260510173131 | 55 | 45 | 0.0 | 0.0 | 0.00 | 0.00 | 0.00 | 75 | 997.4 |
| 20260510172628 | 55 | 90 | 0.0 | 0.0 | 0.00 | 0.00 | 0.00 | 75 | 997.3 |
| 20260510172200 | 55 | 225 | 0.0 | 0.0 | 0.00 | 0.00 | 0.00 | 74 | 997.6 |
| 20260510172126 | 55 | 225 | 0.0 | 0.0 | 0.00 | 0.00 | 0.00 | 74 | 997.6 |
| 20260510171719 | 55 | 247 | 0.0 | 0.0 | 0.00 | 0.00 | 0.00 | 72 | 997.4 |
| 20260510171624 | 55 | 247 | 0.0 | 0.0 | 0.00 | 0.00 | 0.00 | 72 | 997.4 |
| 20260510171223 | 56 | 225 | 0.0 | 0.0 | 0.00 | 0.00 | 0.00 | 68 | 997.3 |
| 20260510171122 | 56 | 225 | 0.0 | 0.0 | 0.00 | 0.00 | 0.00 | 68 | 997.3 |
| 20260510170619 | 58 | 247 | 0.0 | 0.0 | 0.00 | 0.00 | 0.00 | 63 | 997.4 |
| 20260510170106 | 59 | 135 | 0.0 | 2.0 | 0.00 | 0.00 | 0.00 | 59 | 997.3 |
| 20260510170014 | 59 | 135 | 0.0 | 2.0 | 0.00 | 0.00 | 0.00 | 59 | 997.3 |
| 20260510165548 | 59 | 168 | 2.0 | 5.0 | 0.00 | 0.00 | 0.00 | 57 | 997.2 |
| 20260510165512 | 59 | 168 | 2.0 | 5.0 | 0.00 | 0.00 | 0.00 | 57 | 997.2 |
| 20260510165047 | 60 | 180 | 0.0 | 0.0 | 0.00 | 0.00 | 0.00 | 55 | 997.2 |
| 20260510165010 | 60 | 180 | 0.0 | 0.0 | 0.00 | 0.00 | 0.00 | 55 | 997.2 |
| 20260510164508 | 60 | 247 | 0.0 | 0.0 | 0.00 | 0.00 | 0.00 | 52 | 997.0 |
| 20260510164055 | 60 | 90 | 0.0 | 0.0 | 0.00 | 0.00 | 0.00 | 54 | 996.9 |
| 20260510164005 | 60 | 90 | 0.0 | 0.0 | 0.00 | 0.00 | 0.00 | 54 | 996.9 |
| 20260510163504 | 60 | 270 | 0.0 | 0.0 | 0.00 | 0.00 | 0.00 | 54 | 997.0 |
| 20260510163001 | 60 | 247 | 0.0 | 0.0 | 0.00 | 0.00 | 0.00 | 54 | 996.9 |
| 20260510162536 | 60 | 247 | 0.0 | 0.0 | 0.00 | 0.00 | 0.00 | 56 | 996.8 |
| 20260510162459 | 60 | 247 | 0.0 | 0.0 | 0.00 | 0.00 | 0.00 | 56 | 996.8 |
| 20260510161956 | 60 | 247 | 0.0 | 0.0 | 0.00 | 0.00 | 0.00 | 56 | 996.8 |
| 20260510161536 | 59 | 258 | 0.0 | 0.0 | 0.00 | 0.00 | 0.00 | 60 | 997.0 |
| 20260510161455 | 59 | 258 | 0.0 | 0.0 | 0.00 | 0.00 | 0.00 | 60 | 997.0 |
| 20260510160529 | 58 | 202 | 0.0 | 0.0 | 0.00 | 0.00 | 0.00 | 68 | 997.0 |
| 20260510160451 | 58 | 202 | 0.0 | 0.0 | 0.00 | 0.00 | 0.00 | 68 | 997.0 |
| 20260510160239 | 58 | 315 | 0.0 | 0.0 | 0.00 | 0.00 | 0.00 | 68 | 997.0 |
| 20260510155830 | 58 | 247 | 0.0 | 0.0 | 0.00 | 0.00 | 0.00 | 66 | 997.1 |
| 20260510155737 | 58 | 247 | 0.0 | 0.0 | 0.00 | 0.00 | 0.00 | 66 | 997.1 |
| 20260510155235 | 58 | 157 | 0.0 | 0.0 | 0.00 | 0.00 | 0.00 | 61 | 997.1 |
| 20260510154806 | 58 | 247 | 0.0 | 0.0 | 0.00 | 0.00 | 0.00 | 60 | 997.0 |
| 20260510154733 | 58 | 247 | 0.0 | 0.0 | 0.00 | 0.00 | 0.00 | 60 | 997.0 |
| 20260510154311 | 58 | 270 | 0.0 | 0.0 | 0.00 | 0.00 | 0.00 | 60 | 997.0 |
| 20260510154230 | 58 | 270 | 0.0 | 0.0 | 0.00 | 0.00 | 0.00 | 60 | 997.0 |
| 20260510153809 | 58 | 270 | 0.0 | 0.0 | 0.00 | 0.00 | 0.00 | 64 | 997.1 |
| 20260510153729 | 58 | 270 | 0.0 | 0.0 | 0.00 | 0.00 | 0.00 | 64 | 997.1 |
| 20260510153259 | 58 | 112 | 0.0 | 0.0 | 0.00 | 0.00 | 0.00 | 64 | 997.1 |
| 20260510153226 | 58 | 112 | 0.0 | 0.0 | 0.00 | 0.00 | 0.00 | 64 | 997.1 |
| 20260510152816 | 57 | 270 | 0.0 | 0.0 | 0.00 | 0.00 | 0.00 | 66 | 997.1 |
| 20260510152724 | 57 | 270 | 0.0 | 0.0 | 0.00 | 0.00 | 0.00 | 66 | 997.1 |
| 20260510152307 | 57 | 202 | 0.0 | 0.0 | 0.00 | 0.00 | 0.00 | 66 | 997.2 |
| 20260510152221 | 57 | 202 | 0.0 | 0.0 | 0.00 | 0.00 | 0.00 | 66 | 997.2 |
| 20260510151813 | 57 | 45 | 0.0 | 0.0 | 0.00 | 0.00 | 0.00 | 70 | 997.0 |
| 20260510151720 | 57 | 45 | 0.0 | 0.0 | 0.00 | 0.00 | 0.00 | 70 | 997.0 |
| 20260510151314 | 56 | 225 | 0.0 | 0.0 | 0.00 | 0.00 | 0.00 | 72 | 997.2 |
| 20260510151217 | 56 | 225 | 0.0 | 0.0 | 0.00 | 0.00 | 0.00 | 72 | 997.2 |
| 20260510150825 | 56 | 236 | 0.0 | 0.0 | 0.00 | 0.00 | 0.00 | 72 | 997.3 |
| 20260510150715 | 56 | 236 | 0.0 | 0.0 | 0.00 | 0.00 | 0.00 | 72 | 997.3 |
| 20260510150213 | 55 | 135 | 0.0 | 0.0 | 0.00 | 0.00 | 0.00 | 71 | 997.5 |
| 20260510145758 | 55 | 202 | 0.0 | 0.0 | 0.00 | 0.00 | 0.00 | 71 | 997.5 |
| 20260510145711 | 55 | 202 | 0.0 | 0.0 | 0.00 | 0.00 | 0.00 | 71 | 997.5 |
| 20260510145208 | 56 | 180 | 0.0 | 7.0 | 0.00 | 0.00 | 0.00 | 70 | 997.8 |
| 20260510144747 | 56 | 247 | 6.0 | 9.0 | 0.00 | 0.00 | 0.00 | 69 | 997.8 |
| 20260510144707 | 56 | 247 | 6.0 | 9.0 | 0.00 | 0.00 | 0.00 | 69 | 997.8 |
| 20260510143739 | 58 | 247 | 6.0 | 14.0 | 0.00 | 0.00 | 0.00 | 58 | 997.6 |
| 20260510143702 | 58 | 247 | 6.0 | 14.0 | 0.00 | 0.00 | 0.00 | 58 | 997.6 |
| 20260510143200 | 60 | 225 | 11.0 | 11.0 | 0.00 | 0.00 | 0.00 | 53 | 997.4 |
| 20260510142755 | 61 | 292 | 5.0 | 9.0 | 0.00 | 0.00 | 0.00 | 51 | 997.5 |
| 20260510142658 | 61 | 292 | 5.0 | 9.0 | 0.00 | 0.00 | 0.00 | 51 | 997.5 |
| 20260510142155 | 62 | 90 | 5.0 | 11.0 | 0.00 | 0.00 | 0.00 | 43 | 997.4 |
| 20260510141654 | 63 | 247 | 5.0 | 11.0 | 0.00 | 0.00 | 0.00 | 41 | 997.2 |
| 20260510141258 | 64 | 225 | 2.0 | 13.0 | 0.00 | 0.00 | 0.00 | 41 | 997.1 |
| 20260510141151 | 64 | 225 | 2.0 | 13.0 | 0.00 | 0.00 | 0.00 | 41 | 997.1 |
| 20260510140728 | 64 | 258 | 7.0 | 13.0 | 0.00 | 0.00 | 0.00 | 43 | 997.1 |
| 20260510140649 | 64 | 258 | 7.0 | 13.0 | 0.00 | 0.00 | 0.00 | 43 | 997.1 |
| 20260510140224 | 63 | 315 | 5.0 | 14.0 | 0.00 | 0.00 | 0.00 | 44 | 997.0 |
| 20260510140147 | 63 | 315 | 5.0 | 14.0 | 0.00 | 0.00 | 0.00 | 44 | 997.0 |
| 20260510135730 | 62 | 270 | 6.0 | 11.0 | 0.00 | 0.00 | 0.00 | 48 | 997.1 |
| 20260510135645 | 62 | 270 | 6.0 | 11.0 | 0.00 | 0.00 | 0.00 | 48 | 997.1 |
| 20260510135219 | 62 | 213 | 5.0 | 12.0 | 0.00 | 0.00 | 0.00 | 49 | 997.3 |
| 20260510135142 | 62 | 213 | 5.0 | 12.0 | 0.00 | 0.00 | 0.00 | 49 | 997.3 |
| 20260510134641 | 61 | 225 | 7.0 | 14.0 | 0.00 | 0.00 | 0.00 | 51 | 997.3 |
| 20260510134230 | 61 | 247 | 7.0 | 18.0 | 0.00 | 0.00 | 0.00 | 50 | 997.2 |
| 20260510134138 | 61 | 247 | 7.0 | 18.0 | 0.00 | 0.00 | 0.00 | 50 | 997.2 |
| 20260510133724 | 63 | 270 | 15.0 | 15.0 | 0.00 | 0.00 | 0.00 | 44 | 997.4 |
| 20260510133636 | 63 | 270 | 15.0 | 15.0 | 0.00 | 0.00 | 0.00 | 44 | 997.4 |
| 20260510133133 | 64 | 270 | 12.0 | 15.0 | 0.00 | 0.00 | 0.00 | 39 | 997.3 |
| 20260510132739 | 65 | 236 | 7.0 | 19.0 | 0.00 | 0.00 | 0.00 | 37 | 997.2 |
| 20260510132632 | 65 | 236 | 7.0 | 19.0 | 0.00 | 0.00 | 0.00 | 37 | 997.2 |
| 20260510132204 | 64 | 247 | 9.0 | 18.0 | 0.00 | 0.00 | 0.00 | 37 | 997.2 |
| 20260510132129 | 64 | 247 | 9.0 | 18.0 | 0.00 | 0.00 | 0.00 | 37 | 997.2 |
| 20260510131628 | 64 | 157 | 9.0 | 17.0 | 0.00 | 0.00 | 0.00 | 36 | 997.2 |
| 20260510131218 | 64 | 225 | 8.0 | 16.0 | 0.00 | 0.00 | 0.00 | 38 | 997.2 |
| 20260510131125 | 64 | 225 | 8.0 | 16.0 | 0.00 | 0.00 | 0.00 | 38 | 997.2 |
| 20260510130623 | 64 | 247 | 12.0 | 17.0 | 0.00 | 0.00 | 0.00 | 36 | 997.2 |
| 20260510130207 | 64 | 225 | 10.0 | 18.0 | 0.00 | 0.00 | 0.00 | 33 | 997.4 |
| 20260510130120 | 64 | 225 | 10.0 | 18.0 | 0.00 | 0.00 | 0.00 | 33 | 997.4 |
| 20260510125744 | 64 | 247 | 9.0 | 16.0 | 0.00 | 0.00 | 0.00 | 34 | 997.4 |
| 20260510125619 | 64 | 247 | 9.0 | 16.0 | 0.00 | 0.00 | 0.00 | 34 | 997.4 |
| 20260510125157 | 64 | 247 | 12.0 | 15.0 | 0.00 | 0.00 | 0.00 | 35 | 997.3 |
| 20260510125116 | 64 | 247 | 12.0 | 15.0 | 0.00 | 0.00 | 0.00 | 35 | 997.3 |
| 20260510124647 | 64 | 225 | 5.0 | 13.0 | 0.00 | 0.00 | 0.00 | 38 | 997.2 |
| 20260510124614 | 64 | 225 | 5.0 | 13.0 | 0.00 | 0.00 | 0.00 | 38 | 997.2 |
| 20260510124159 | 64 | 112 | 5.0 | 13.0 | 0.00 | 0.00 | 0.00 | 35 | 997.4 |
| 20260510124112 | 64 | 112 | 5.0 | 13.0 | 0.00 | 0.00 | 0.00 | 35 | 997.4 |
| 20260510123642 | 63 | 270 | 7.0 | 15.0 | 0.00 | 0.00 | 0.00 | 35 | 997.3 |
| 20260510123610 | 63 | 270 | 7.0 | 15.0 | 0.00 | 0.00 | 0.00 | 35 | 997.3 |
| 20260510123107 | 63 | 270 | 12.0 | 17.0 | 0.00 | 0.00 | 0.00 | 35 | 997.4 |
| 20260510122103 | 62 | 247 | 17.0 | 19.0 | 0.00 | 0.00 | 0.00 | 32 | 997.3 |
| 20260510121601 | 62 | 225 | 15.0 | 20.0 | 0.00 | 0.00 | 0.00 | 33 | 997.4 |
| 20260510121204 | 62 | 247 | 10.0 | 17.0 | 0.00 | 0.00 | 0.00 | 38 | 997.2 |
| 20260510121059 | 62 | 247 | 10.0 | 17.0 | 0.00 | 0.00 | 0.00 | 38 | 997.2 |
| 20260510120557 | 62 | 270 | 6.0 | 18.0 | 0.00 | 0.00 | 0.00 | 38 | 997.5 |
| 20260510120054 | 62 | 270 | 12.0 | 16.0 | 0.00 | 0.00 | 0.00 | 36 | 997.5 |
| 20260510115647 | 62 | 247 | 8.0 | 18.0 | 0.00 | 0.00 | 0.00 | 36 | 997.4 |
| 20260510115553 | 62 | 247 | 8.0 | 18.0 | 0.00 | 0.00 | 0.00 | 36 | 997.4 |
| 20260510115153 | 62 | 247 | 10.0 | 13.0 | 0.00 | 0.00 | 0.00 | 37 | 997.5 |
| 20260510115050 | 62 | 247 | 10.0 | 13.0 | 0.00 | 0.00 | 0.00 | 37 | 997.5 |
| 20260510114621 | 62 | 247 | 12.0 | 12.0 | 0.00 | 0.00 | 0.00 | 37 | 997.6 |
| 20260510114548 | 62 | 247 | 12.0 | 12.0 | 0.00 | 0.00 | 0.00 | 37 | 997.6 |
| 20260510114046 | 62 | 270 | 0.0 | 0.0 | 0.00 | 0.00 | 0.00 | 39 | 997.4 |
| 20260510113618 | 62 | 202 | 0.0 | 0.0 | 0.00 | 0.00 | 0.00 | 38 | 997.5 |
| 20260510113114 | 62 | 247 | 0.0 | 0.0 | 0.00 | 0.00 | 0.00 | 42 | 997.6 |
| 20260510113041 | 62 | 247 | 0.0 | 0.0 | 0.00 | 0.00 | 0.00 | 42 | 997.6 |
| 20260510112622 | 63 | 348 | 0.0 | 0.0 | 0.00 | 0.00 | 0.00 | 44 | 997.5 |
| 20260510112540 | 63 | 348 | 0.0 | 0.0 | 0.00 | 0.00 | 0.00 | 44 | 997.5 |
| 20260510112037 | 62 | 135 | 0.0 | 0.0 | 0.00 | 0.00 | 0.00 | 45 | 997.5 |
| 20260510111535 | 62 | 157 | 0.0 | 0.0 | 0.00 | 0.00 | 0.00 | 45 | 997.6 |
| 20260510111121 | 62 | 258 | 0.0 | 0.0 | 0.00 | 0.00 | 0.00 | 45 | 997.6 |
| 20260510111033 | 62 | 258 | 0.0 | 0.0 | 0.00 | 0.00 | 0.00 | 45 | 997.6 |
| 20260510110614 | 61 | 90 | 0.0 | 0.0 | 0.00 | 0.00 | 0.00 | 45 | 997.5 |
| 20260510110531 | 61 | 90 | 0.0 | 0.0 | 0.00 | 0.00 | 0.00 | 45 | 997.5 |
| 20260510110028 | 61 | 270 | 0.0 | 0.0 | 0.00 | 0.00 | 0.00 | 46 | 997.6 |
| 20260510105605 | 61 | 225 | 0.0 | 0.0 | 0.00 | 0.00 | 0.00 | 44 | 997.4 |
| 20260510105527 | 61 | 225 | 0.0 | 0.0 | 0.00 | 0.00 | 0.00 | 44 | 997.4 |
| 20260510105104 | 61 | 247 | 0.0 | 0.0 | 0.00 | 0.00 | 0.00 | 45 | 997.3 |
| 20260510105024 | 61 | 247 | 0.0 | 0.0 | 0.00 | 0.00 | 0.00 | 45 | 997.3 |
| 20260510104522 | 61 | 225 | 0.0 | 0.0 | 0.00 | 0.00 | 0.00 | 43 | 997.5 |
| 20260510104105 | 61 | 225 | 0.0 | 0.0 | 0.00 | 0.00 | 0.00 | 43 | 997.3 |
| 20260510104019 | 61 | 225 | 0.0 | 0.0 | 0.00 | 0.00 | 0.00 | 43 | 997.3 |
| 20260510103518 | 61 | 247 | 0.0 | 0.0 | 0.00 | 0.00 | 0.00 | 46 | 997.3 |
| 20260510103015 | 60 | 180 | 0.0 | 0.0 | 0.00 | 0.00 | 0.00 | 45 | 997.4 |
| 20260510102604 | 60 | 315 | 0.0 | 0.0 | 0.00 | 0.00 | 0.00 | 46 | 997.5 |
| 20260510102514 | 60 | 315 | 0.0 | 0.0 | 0.00 | 0.00 | 0.00 | 46 | 997.5 |
| 20260510102103 | 60 | 0 | 0.0 | 0.0 | 0.00 | 0.00 | 0.00 | 49 | 997.3 |
| 20260510102011 | 60 | 0 | 0.0 | 0.0 | 0.00 | 0.00 | 0.00 | 49 | 997.3 |
| 20260510101556 | 59 | 270 | 0.0 | 0.0 | 0.00 | 0.00 | 0.00 | 51 | 997.3 |
| 20260510101509 | 59 | 270 | 0.0 | 0.0 | 0.00 | 0.00 | 0.00 | 51 | 997.3 |
| 20260510101006 | 57 | 247 | 0.0 | 0.0 | 0.00 | 0.00 | 0.00 | 53 | 997.3 |
| 20260510100505 | 56 | 225 | 0.0 | 0.0 | 0.00 | 0.00 | 0.00 | 54 | 997.5 |
| 20260510100003 | 56 | 225 | 0.0 | 0.0 | 0.00 | 0.00 | 0.00 | 54 | 997.4 |
| 20260510095600 | 56 | 225 | 0.0 | 0.0 | 0.00 | 0.00 | 0.00 | 56 | 997.5 |
| 20260510095501 | 56 | 225 | 0.0 | 0.0 | 0.00 | 0.00 | 0.00 | 56 | 997.5 |
| 20260510094958 | 55 | 247 | 0.0 | 0.0 | 0.00 | 0.00 | 0.00 | 58 | 997.3 |
| 20260510094456 | 55 | 225 | 0.0 | 0.0 | 0.00 | 0.00 | 0.00 | 62 | 996.4 |
| 20260510094045 | 55 | 67 | 0.0 | 0.0 | 0.00 | 0.00 | 0.00 | 62 | 996.6 |
| 20260510093953 | 55 | 67 | 0.0 | 0.0 | 0.00 | 0.00 | 0.00 | 62 | 996.6 |
| 20260510093452 | 56 | 270 | 0.0 | 0.0 | 0.00 | 0.00 | 0.00 | 59 | 997.5 |
| 20260510092949 | 57 | 157 | 0.0 | 0.0 | 0.00 | 0.00 | 0.00 | 60 | 997.2 |
| 20260510092551 | 57 | 281 | 0.0 | 0.0 | 0.00 | 0.00 | 0.00 | 58 | 997.1 |
| 20260510092447 | 57 | 281 | 0.0 | 0.0 | 0.00 | 0.00 | 0.00 | 58 | 997.1 |
| 20260510091945 | 57 | 202 | 0.0 | 0.0 | 0.00 | 0.00 | 0.00 | 72 | 997.1 |
| 20260510091528 | 57 | 180 | 0.0 | 0.0 | 0.00 | 0.00 | 0.00 | 63 | 997.2 |
| 20260510091443 | 57 | 180 | 0.0 | 0.0 | 0.00 | 0.00 | 0.00 | 63 | 997.2 |
| 20260510091140 | 57 | 270 | 0.0 | 0.0 | 0.00 | 0.00 | 0.00 | 63 | 997.1 |
| 20260510090939 | 58 | 135 | 0.0 | 0.0 | 0.00 | 0.00 | 0.00 | 62 | 997.2 |
| 20260510090436 | 58 | 180 | 0.0 | 0.0 | 0.00 | 0.00 | 0.00 | 62 | 997.2 |
| 20260510085935 | 58 | 247 | 0.0 | 0.0 | 0.00 | 0.00 | 0.00 | 63 | 997.3 |
| 20260510085432 | 58 | 225 | 0.0 | 0.0 | 0.00 | 0.00 | 0.00 | 64 | 997.2 |
| 20260510084930 | 57 | 225 | 0.0 | 0.0 | 0.00 | 0.00 | 0.00 | 64 | 997.2 |
| 20260510084428 | 57 | 247 | 0.0 | 0.0 | 0.00 | 0.00 | 0.00 | 64 | 997.1 |
| 20260510084019 | 57 | 292 | 0.0 | 0.0 | 0.00 | 0.00 | 0.00 | 66 | 997.1 |
| 20260510083926 | 57 | 292 | 0.0 | 0.0 | 0.00 | 0.00 | 0.00 | 66 | 997.1 |
| 20260510083423 | 57 | 0 | 0.0 | 0.0 | 0.00 | 0.00 | 0.00 | 67 | 997.1 |
| 20260510083017 | 57 | 157 | 0.0 | 0.0 | 0.00 | 0.00 | 0.00 | 67 | 997.2 |
| 20260510082922 | 57 | 157 | 0.0 | 0.0 | 0.00 | 0.00 | 0.00 | 67 | 997.2 |
| 20260510082501 | 56 | 180 | 0.0 | 1.0 | 0.00 | 0.00 | 0.00 | 68 | 997.3 |
| 20260510082419 | 56 | 180 | 0.0 | 1.0 | 0.00 | 0.00 | 0.00 | 68 | 997.3 |
| 20260510082014 | 56 | 180 | 0.0 | 0.0 | 0.00 | 0.00 | 0.00 | 70 | 997.2 |
| 20260510081917 | 56 | 180 | 0.0 | 0.0 | 0.00 | 0.00 | 0.00 | 70 | 997.2 |
| 20260510081415 | 55 | 157 | 0.0 | 0.0 | 0.00 | 0.00 | 0.00 | 71 | 997.3 |
| 20260510080410 | 55 | 90 | 0.0 | 0.0 | 0.00 | 0.00 | 0.00 | 71 | 997.4 |
| 20260510075909 | 55 | 67 | 0.0 | 0.0 | 0.00 | 0.00 | 0.00 | 73 | 997.3 |
| 20260510075406 | 54 | 135 | 0.0 | 0.0 | 0.00 | 0.00 | 0.00 | 73 | 997.4 |
| 20260510074904 | 53 | 157 | 0.0 | 0.0 | 0.00 | 0.00 | 0.00 | 74 | 997.3 |
| 20260510074402 | 53 | 67 | 0.0 | 0.0 | 0.00 | 0.00 | 0.00 | 74 | 997.4 |
| 20260510073437 | 53 | 202 | 0.0 | 0.0 | 0.00 | 0.00 | 0.00 | 77 | 997.2 |
| 20260510073357 | 53 | 202 | 0.0 | 0.0 | 0.00 | 0.00 | 0.00 | 77 | 997.2 |
| 20260510072937 | 52 | 180 | 0.0 | 1.0 | 0.00 | 0.00 | 0.00 | 79 | 997.3 |
| 20260510072856 | 52 | 180 | 0.0 | 1.0 | 0.00 | 0.00 | 0.00 | 79 | 997.3 |
| 20260510072438 | 52 | 90 | 0.0 | 0.0 | 0.00 | 0.00 | 0.00 | 81 | 997.1 |
| 20260510072353 | 52 | 90 | 0.0 | 0.0 | 0.00 | 0.00 | 0.00 | 81 | 997.1 |
| 20260510071851 | 51 | 112 | 0.0 | 0.0 | 0.00 | 0.00 | 0.00 | 83 | 997.1 |
| 20260510071348 | 50 | 326 | 0.0 | 0.0 | 0.00 | 0.00 | 0.00 | 83 | 997.2 |
| 20260510070847 | 49 | 135 | 0.0 | 0.0 | 0.00 | 0.00 | 0.00 | 84 | 997.1 |
| 20260510070344 | 48 | 22 | 0.0 | 0.0 | 0.00 | 0.00 | 0.00 | 84 | 997.1 |
| 20260510065948 | 48 | 180 | 0.0 | 0.0 | 0.00 | 0.00 | 0.00 | 82 | 997.2 |
| 20260510065842 | 48 | 180 | 0.0 | 0.0 | 0.00 | 0.00 | 0.00 | 82 | 997.2 |
| 20260510064918 | 48 | 191 | 0.0 | 0.0 | 0.00 | 0.00 | 0.00 | 81 | 997.3 |
| 20260510064838 | 48 | 191 | 0.0 | 0.0 | 0.00 | 0.00 | 0.00 | 81 | 997.3 |
| 20260510064335 | 48 | 135 | 0.0 | 0.0 | 0.00 | 0.00 | 0.00 | 81 | 997.0 |
| 20260510063834 | 48 | 0 | 0.0 | 0.0 | 0.00 | 0.00 | 0.00 | 80 | 997.1 |
| 20260510063331 | 49 | 247 | 0.0 | 0.0 | 0.00 | 0.00 | 0.00 | 78 | 997.2 |
| 20260510062910 | 49 | 225 | 0.0 | 0.0 | 0.00 | 0.00 | 0.00 | 78 | 997.2 |
| 20260510062829 | 49 | 225 | 0.0 | 0.0 | 0.00 | 0.00 | 0.00 | 78 | 997.2 |
| 20260510062327 | 50 | 247 | 0.0 | 0.0 | 0.00 | 0.00 | 0.00 | 81 | 997.2 |
| 20260510061825 | 50 | 292 | 0.0 | 0.0 | 0.00 | 0.00 | 0.00 | 81 | 996.8 |
| 20260510061322 | 50 | 67 | 0.0 | 0.0 | 0.00 | 0.00 | 0.00 | 82 | 996.6 |
| 20260510060821 | 49 | 270 | 0.0 | 0.0 | 0.00 | 0.00 | 0.00 | 82 | 996.4 |
| 20260510060318 | 49 | 225 | 0.0 | 0.0 | 0.00 | 0.00 | 0.00 | 82 | 996.4 |
| 20260510055854 | 49 | 191 | 0.0 | 0.0 | 0.00 | 0.00 | 0.00 | 82 | 996.2 |
| 20260510055816 | 49 | 191 | 0.0 | 0.0 | 0.00 | 0.00 | 0.00 | 82 | 996.2 |
| 20260510055353 | 49 | 225 | 0.0 | 0.0 | 0.00 | 0.00 | 0.00 | 82 | 996.3 |
| 20260510055314 | 49 | 225 | 0.0 | 0.0 | 0.00 | 0.00 | 0.00 | 82 | 996.3 |
| 20260510054845 | 49 | 247 | 0.0 | 0.0 | 0.00 | 0.00 | 0.00 | 82 | 996.4 |
| 20260510054812 | 49 | 247 | 0.0 | 0.0 | 0.00 | 0.00 | 0.00 | 82 | 996.4 |
| 20260510054347 | 49 | 225 | 0.0 | 0.0 | 0.00 | 0.00 | 0.00 | 82 | 996.4 |
| 20260510054309 | 49 | 225 | 0.0 | 0.0 | 0.00 | 0.00 | 0.00 | 82 | 996.4 |
| 20260510053856 | 49 | 202 | 0.0 | 0.0 | 0.00 | 0.00 | 0.00 | 82 | 996.2 |
| 20260510053808 | 49 | 202 | 0.0 | 0.0 | 0.00 | 0.00 | 0.00 | 82 | 996.2 |
| 20260510053305 | 49 | 123 | 0.0 | 0.0 | 0.00 | 0.00 | 0.00 | 82 | 996.2 |
| 20260510052301 | 49 | 33 | 0.0 | 0.0 | 0.00 | 0.00 | 0.00 | 82 | 996.2 |
| 20260510051759 | 49 | 22 | 0.0 | 0.0 | 0.00 | 0.00 | 0.00 | 81 | 996.2 |
| 20260510051341 | 49 | 180 | 0.0 | 0.0 | 0.00 | 0.00 | 0.00 | 82 | 996.2 |
| 20260510051256 | 49 | 180 | 0.0 | 0.0 | 0.00 | 0.00 | 0.00 | 82 | 996.2 |
| 20260510050833 | 49 | 123 | 0.0 | 0.0 | 0.00 | 0.00 | 0.00 | 81 | 996.1 |
| 20260510050755 | 49 | 123 | 0.0 | 0.0 | 0.00 | 0.00 | 0.00 | 81 | 996.1 |
| 20260510050252 | 49 | 270 | 0.0 | 0.0 | 0.00 | 0.00 | 0.00 | 82 | 996.2 |
| 20260510045842 | 49 | 78 | 0.0 | 0.0 | 0.00 | 0.00 | 0.00 | 82 | 996.0 |
| 20260510045750 | 49 | 78 | 0.0 | 0.0 | 0.00 | 0.00 | 0.00 | 82 | 996.0 |
| 20260510045248 | 49 | 292 | 0.0 | 0.0 | 0.00 | 0.00 | 0.00 | 82 | 996.0 |
| 20260510044819 | 49 | 157 | 0.0 | 0.0 | 0.00 | 0.00 | 0.00 | 82 | 996.0 |
| 20260510044746 | 49 | 157 | 0.0 | 0.0 | 0.00 | 0.00 | 0.00 | 82 | 996.0 |
| 20260510044319 | 49 | 202 | 0.0 | 0.0 | 0.00 | 0.00 | 0.00 | 82 | 995.9 |
| 20260510044243 | 49 | 202 | 0.0 | 0.0 | 0.00 | 0.00 | 0.00 | 82 | 995.9 |
| 20260510043742 | 50 | 236 | 0.0 | 0.0 | 0.00 | 0.00 | 0.00 | 82 | 996.0 |
| 20260510043239 | 49 | 123 | 0.0 | 0.0 | 0.00 | 0.00 | 0.00 | 83 | 996.2 |
| 20260510042840 | 49 | 180 | 0.0 | 4.0 | 0.00 | 0.00 | 0.00 | 83 | 996.1 |
| 20260510042737 | 49 | 180 | 0.0 | 4.0 | 0.00 | 0.00 | 0.00 | 83 | 996.1 |
| 20260510042234 | 49 | 180 | 0.0 | 0.0 | 0.00 | 0.00 | 0.00 | 83 | 996.1 |
| 20260510041804 | 49 | 45 | 0.0 | 0.0 | 0.00 | 0.00 | 0.00 | 83 | 996.0 |
| 20260510041733 | 49 | 45 | 0.0 | 0.0 | 0.00 | 0.00 | 0.00 | 83 | 996.0 |
| 20260510041314 | 49 | 315 | 0.0 | 0.0 | 0.00 | 0.00 | 0.00 | 84 | 995.8 |
| 20260510041230 | 49 | 315 | 0.0 | 0.0 | 0.00 | 0.00 | 0.00 | 84 | 995.8 |
| 20260510040728 | 49 | 225 | 0.0 | 0.0 | 0.00 | 0.00 | 0.00 | 83 | 995.8 |
| 20260510040226 | 49 | 123 | 0.0 | 0.0 | 0.00 | 0.00 | 0.00 | 83 | 995.8 |
| 20260510035809 | 49 | 135 | 0.0 | 0.0 | 0.00 | 0.00 | 0.00 | 83 | 996.0 |
| 20260510035724 | 49 | 135 | 0.0 | 0.0 | 0.00 | 0.00 | 0.00 | 83 | 996.0 |
| 20260510035221 | 49 | 0 | 0.0 | 0.0 | 0.00 | 0.00 | 0.00 | 82 | 995.8 |
| 20260510034720 | 49 | 157 | 0.0 | 0.0 | 0.00 | 0.00 | 0.00 | 82 | 995.8 |
| 20260510034304 | 49 | 0 | 0.0 | 0.0 | 0.00 | 0.00 | 0.00 | 82 | 995.9 |
| 20260510034217 | 49 | 0 | 0.0 | 0.0 | 0.00 | 0.00 | 0.00 | 82 | 995.9 |
| 20260510033715 | 49 | 247 | 0.0 | 0.0 | 0.00 | 0.00 | 0.00 | 82 | 995.6 |
| 20260510033213 | 49 | 67 | 0.0 | 0.0 | 0.00 | 0.00 | 0.00 | 81 | 995.6 |
| 20260510032756 | 49 | 270 | 0.0 | 0.0 | 0.00 | 0.00 | 0.00 | 80 | 995.8 |
| 20260510032711 | 49 | 270 | 0.0 | 0.0 | 0.00 | 0.00 | 0.00 | 80 | 995.8 |
| 20260510031803 | 49 | 101 | 0.0 | 0.0 | 0.00 | 0.00 | 0.00 | 80 | 995.7 |
| 20260510031707 | 49 | 101 | 0.0 | 0.0 | 0.00 | 0.00 | 0.00 | 80 | 995.7 |
| 20260510031204 | 49 | 0 | 0.0 | 0.0 | 0.00 | 0.00 | 0.00 | 80 | 995.7 |
| 20260510030748 | 49 | 202 | 0.0 | 0.0 | 0.00 | 0.00 | 0.00 | 80 | 995.9 |
| 20260510030702 | 49 | 202 | 0.0 | 0.0 | 0.00 | 0.00 | 0.00 | 80 | 995.9 |
| 20260510030200 | 49 | 112 | 0.0 | 0.0 | 0.00 | 0.00 | 0.00 | 80 | 995.9 |
| 20260510025822 | 50 | 180 | 0.0 | 0.0 | 0.00 | 0.00 | 0.00 | 80 | 995.9 |
| 20260510025658 | 50 | 180 | 0.0 | 0.0 | 0.00 | 0.00 | 0.00 | 80 | 995.9 |
| 20260510025155 | 50 | 112 | 0.0 | 0.0 | 0.00 | 0.00 | 0.00 | 80 | 995.9 |
| 20260510024725 | 50 | 180 | 0.0 | 0.0 | 0.00 | 0.00 | 0.00 | 79 | 995.9 |
| 20260510024654 | 50 | 180 | 0.0 | 0.0 | 0.00 | 0.00 | 0.00 | 79 | 995.9 |
| 20260510024151 | 50 | 33 | 0.0 | 0.0 | 0.00 | 0.00 | 0.00 | 79 | 995.9 |
| 20260510023723 | 50 | 67 | 0.0 | 0.0 | 0.00 | 0.00 | 0.00 | 78 | 995.7 |
| 20260510023649 | 50 | 67 | 0.0 | 0.0 | 0.00 | 0.00 | 0.00 | 78 | 995.7 |
| 20260510023147 | 50 | 315 | 0.0 | 0.0 | 0.00 | 0.00 | 0.00 | 78 | 995.7 |
| 20260510022729 | 50 | 157 | 0.0 | 0.0 | 0.00 | 0.00 | 0.00 | 78 | 995.8 |
| 20260510022645 | 50 | 157 | 0.0 | 0.0 | 0.00 | 0.00 | 0.00 | 78 | 995.8 |
| 20260510022142 | 50 | 0 | 0.0 | 2.0 | 0.00 | 0.00 | 0.00 | 77 | 995.9 |
| 20260510021715 | 50 | 180 | 0.0 | 0.0 | 0.00 | 0.00 | 0.00 | 78 | 995.7 |
| 20260510021641 | 50 | 180 | 0.0 | 0.0 | 0.00 | 0.00 | 0.00 | 78 | 995.7 |
| 20260510021224 | 50 | 337 | 0.0 | 0.0 | 0.00 | 0.00 | 0.00 | 78 | 995.9 |
| 20260510021138 | 50 | 337 | 0.0 | 0.0 | 0.00 | 0.00 | 0.00 | 78 | 995.9 |
| 20260510020707 | 50 | 202 | 0.0 | 0.0 | 0.00 | 0.00 | 0.00 | 78 | 995.8 |
| 20260510020636 | 50 | 202 | 0.0 | 0.0 | 0.00 | 0.00 | 0.00 | 78 | 995.8 |
| 20260510020134 | 50 | 247 | 0.0 | 0.0 | 0.00 | 0.00 | 0.00 | 78 | 995.8 |
| 20260510015719 | 50 | 225 | 0.0 | 0.0 | 0.00 | 0.00 | 0.00 | 79 | 995.9 |
| 20260510015632 | 50 | 225 | 0.0 | 0.0 | 0.00 | 0.00 | 0.00 | 79 | 995.9 |
| 20260510015129 | 50 | 270 | 0.0 | 0.0 | 0.00 | 0.00 | 0.00 | 79 | 995.8 |
| 20260510014703 | 50 | 157 | 0.0 | 0.0 | 0.00 | 0.00 | 0.00 | 79 | 995.9 |
| 20260510014628 | 50 | 157 | 0.0 | 0.0 | 0.00 | 0.00 | 0.00 | 79 | 995.9 |
| 20260510014125 | 50 | 90 | 0.0 | 0.0 | 0.00 | 0.00 | 0.00 | 79 | 996.0 |
| 20260510013623 | 50 | 270 | 0.0 | 0.0 | 0.00 | 0.00 | 0.00 | 79 | 996.1 |
| 20260510013120 | 50 | 135 | 0.0 | 0.0 | 0.00 | 0.00 | 0.00 | 79 | 996.2 |
| 20260510012740 | 50 | 22 | 0.0 | 0.0 | 0.00 | 0.00 | 0.00 | 79 | 996.3 |
| 20260510012619 | 50 | 22 | 0.0 | 0.0 | 0.00 | 0.00 | 0.00 | 79 | 996.3 |
| 20260510012116 | 50 | 202 | 0.0 | 0.0 | 0.00 | 0.00 | 0.00 | 79 | 996.2 |
| 20260510011655 | 50 | 146 | 0.0 | 0.0 | 0.00 | 0.00 | 0.00 | 79 | 996.4 |
| 20260510011614 | 50 | 146 | 0.0 | 0.0 | 0.00 | 0.00 | 0.00 | 79 | 996.4 |
| 20260510011112 | 50 | 0 | 0.0 | 0.0 | 0.00 | 0.00 | 0.00 | 79 | 996.5 |
| 20260510010649 | 50 | 292 | 0.0 | 0.0 | 0.00 | 0.00 | 0.00 | 79 | 996.5 |
| 20260510010610 | 50 | 292 | 0.0 | 0.0 | 0.00 | 0.00 | 0.00 | 79 | 996.5 |
| 20260510010107 | 50 | 45 | 0.0 | 0.0 | 0.00 | 0.00 | 0.00 | 79 | 996.5 |
| 20260510005606 | 50 | 135 | 0.0 | 0.0 | 0.00 | 0.00 | 0.00 | 79 | 996.4 |
| 20260510005103 | 50 | 337 | 0.0 | 0.0 | 0.00 | 0.00 | 0.00 | 79 | 996.5 |
| 20260510004601 | 50 | 315 | 0.0 | 0.0 | 0.00 | 0.00 | 0.00 | 79 | 996.5 |
| 20260510004059 | 50 | 202 | 0.0 | 0.0 | 0.00 | 0.00 | 0.00 | 78 | 996.6 |
| 20260510003557 | 50 | 247 | 0.0 | 0.0 | 0.00 | 0.00 | 0.00 | 79 | 996.5 |
| 20260510003054 | 50 | 202 | 0.0 | 0.0 | 0.00 | 0.00 | 0.00 | 79 | 996.7 |
| 20260510002553 | 50 | 90 | 0.0 | 0.0 | 0.00 | 0.00 | 0.00 | 80 | 996.8 |
| 20260510002050 | 50 | 67 | 0.0 | 0.0 | 0.00 | 0.00 | 0.00 | 81 | 996.8 |
| 20260510001622 | 51 | 180 | 0.0 | 0.0 | 0.00 | 0.00 | 0.00 | 81 | 996.8 |
| 20260510001548 | 51 | 180 | 0.0 | 0.0 | 0.00 | 0.00 | 0.00 | 81 | 996.8 |
| 20260510001046 | 51 | 157 | 0.0 | 0.0 | 0.00 | 0.00 | 0.00 | 82 | 996.9 |
| 20260510000544 | 51 | 270 | 0.0 | 0.0 | 0.00 | 0.00 | 0.00 | 82 | 996.9 |
| 20260510000041 | 51 | 135 | 0.0 | 0.0 | 0.00 | 0.00 | 0.00 | 83 | 996.7 |
| 20260509235623 | 51 | 157 | 0.0 | 0.0 | 0.00 | 0.00 | 0.00 | 82 | 996.7 |
| 20260509235540 | 51 | 157 | 0.0 | 0.0 | 0.00 | 0.00 | 0.00 | 82 | 996.7 |
| 20260509235037 | 51 | 0 | 0.0 | 0.0 | 0.00 | 0.00 | 0.00 | 82 | 996.7 |
| 20260509234617 | 51 | 225 | 0.0 | 0.0 | 0.00 | 0.00 | 0.00 | 82 | 996.7 |
| 20260509234535 | 51 | 225 | 0.0 | 0.0 | 0.00 | 0.00 | 0.00 | 82 | 996.7 |
| 20260509234033 | 51 | 67 | 0.0 | 0.0 | 0.00 | 0.00 | 0.00 | 82 | 996.8 |
| 20260509233604 | 51 | 123 | 0.0 | 0.0 | 0.00 | 0.00 | 0.00 | 81 | 996.7 |
| 20260509233531 | 51 | 123 | 0.0 | 0.0 | 0.00 | 0.00 | 0.00 | 81 | 996.7 |
| 20260509233059 | 51 | 112 | 0.0 | 1.0 | 0.00 | 0.00 | 0.00 | 81 | 996.9 |
| 20260509233028 | 51 | 112 | 0.0 | 1.0 | 0.00 | 0.00 | 0.00 | 81 | 996.9 |
| 20260509232613 | 51 | 157 | 0.0 | 2.0 | 0.00 | 0.00 | 0.00 | 81 | 996.8 |
| 20260509232527 | 51 | 157 | 0.0 | 2.0 | 0.00 | 0.00 | 0.00 | 81 | 996.8 |
| 20260509232024 | 51 | 135 | 0.0 | 1.0 | 0.00 | 0.00 | 0.00 | 82 | 996.7 |
| 20260509231522 | 51 | 225 | 0.0 | 0.0 | 0.00 | 0.00 | 0.00 | 81 | 996.8 |
| 20260509231020 | 51 | 191 | 0.0 | 0.0 | 0.00 | 0.00 | 0.00 | 81 | 996.8 |
| 20260509230518 | 50 | 247 | 0.0 | 0.0 | 0.00 | 0.00 | 0.00 | 80 | 996.9 |
| 20260509230059 | 50 | 270 | 0.0 | 0.0 | 0.00 | 0.00 | 0.00 | 79 | 997.0 |
| 20260509230015 | 50 | 270 | 0.0 | 0.0 | 0.00 | 0.00 | 0.00 | 79 | 997.0 |
| 20260509225514 | 50 | 225 | 0.0 | 0.0 | 0.00 | 0.00 | 0.00 | 78 | 997.0 |
| 20260509225011 | 51 | 270 | 0.0 | 0.0 | 0.00 | 0.00 | 0.00 | 78 | 997.1 |
| 20260509224509 | 51 | 90 | 0.0 | 0.0 | 0.00 | 0.00 | 0.00 | 77 | 997.0 |
| 20260509224006 | 51 | 45 | 0.0 | 0.0 | 0.00 | 0.00 | 0.00 | 76 | 997.1 |
| 20260509223537 | 51 | 225 | 0.0 | 0.0 | 0.00 | 0.00 | 0.00 | 76 | 997.1 |
| 20260509223505 | 51 | 225 | 0.0 | 0.0 | 0.00 | 0.00 | 0.00 | 76 | 997.1 |
| 20260509222533 | 51 | 315 | 0.0 | 0.0 | 0.00 | 0.00 | 0.00 | 76 | 997.1 |
| 20260509222500 | 51 | 315 | 0.0 | 0.0 | 0.00 | 0.00 | 0.00 | 76 | 997.1 |
| 20260509221958 | 52 | 247 | 0.0 | 0.0 | 0.00 | 0.00 | 0.00 | 77 | 997.1 |
| 20260509221456 | 52 | 247 | 0.0 | 0.0 | 0.00 | 0.00 | 0.00 | 78 | 997.2 |
| 20260509220953 | 52 | 0 | 0.0 | 0.0 | 0.00 | 0.00 | 0.00 | 76 | 997.0 |
| 20260509220452 | 52 | 292 | 0.0 | 0.0 | 0.00 | 0.00 | 0.00 | 76 | 996.9 |
| 20260509215447 | 52 | 135 | 0.0 | 0.0 | 0.00 | 0.00 | 0.00 | 76 | 996.9 |
| 20260509214945 | 52 | 157 | 0.0 | 0.0 | 0.00 | 0.00 | 0.00 | 75 | 997.0 |
| 20260509214540 | 52 | 90 | 0.0 | 0.0 | 0.00 | 0.00 | 0.00 | 76 | 997.0 |
| 20260509214443 | 52 | 90 | 0.0 | 0.0 | 0.00 | 0.00 | 0.00 | 76 | 997.0 |
| 20260509213940 | 52 | 326 | 0.0 | 0.0 | 0.00 | 0.00 | 0.00 | 75 | 996.8 |
| 20260509213439 | 52 | 337 | 0.0 | 0.0 | 0.00 | 0.00 | 0.00 | 75 | 996.6 |
| 20260509213007 | 52 | 135 | 0.0 | 0.0 | 0.00 | 0.00 | 0.00 | 75 | 996.6 |
| 20260509212936 | 52 | 135 | 0.0 | 0.0 | 0.00 | 0.00 | 0.00 | 75 | 996.6 |
| 20260509212434 | 52 | 112 | 0.0 | 0.0 | 0.00 | 0.00 | 0.00 | 75 | 996.4 |
| 20260509211932 | 52 | 101 | 0.0 | 0.0 | 0.00 | 0.00 | 0.00 | 75 | 996.5 |
| 20260509211522 | 52 | 146 | 0.0 | 0.0 | 0.00 | 0.00 | 0.00 | 75 | 996.5 |
| 20260509211430 | 52 | 146 | 0.0 | 0.0 | 0.00 | 0.00 | 0.00 | 75 | 996.5 |
| 20260509210927 | 52 | 101 | 0.0 | 0.0 | 0.00 | 0.00 | 0.00 | 75 | 996.5 |
| 20260509210506 | 52 | 225 | 0.0 | 0.0 | 0.00 | 0.00 | 0.00 | 74 | 996.4 |
| 20260509210426 | 52 | 225 | 0.0 | 0.0 | 0.00 | 0.00 | 0.00 | 74 | 996.4 |
| 20260509210014 | 52 | 180 | 0.0 | 0.0 | 0.00 | 0.00 | 0.00 | 74 | 996.3 |
| 20260509205923 | 52 | 180 | 0.0 | 0.0 | 0.00 | 0.00 | 0.00 | 74 | 996.3 |
| 20260509205459 | 53 | 303 | 0.0 | 0.0 | 0.00 | 0.00 | 0.00 | 74 | 996.4 |
| 20260509205421 | 53 | 303 | 0.0 | 0.0 | 0.00 | 0.00 | 0.00 | 74 | 996.4 |
| 20260509204919 | 53 | 348 | 0.0 | 0.0 | 0.00 | 0.00 | 0.00 | 73 | 996.3 |
| 20260509203914 | 53 | 247 | 0.0 | 0.0 | 0.00 | 0.00 | 0.00 | 74 | 996.2 |
| 20260509203453 | 53 | 270 | 0.0 | 0.0 | 0.00 | 0.00 | 0.00 | 74 | 996.2 |
| 20260509203413 | 53 | 270 | 0.0 | 0.0 | 0.00 | 0.00 | 0.00 | 74 | 996.2 |